This is the latest recevied weather packets stored in our database for station/object WA4OPQ-1. If no packets are shown the sender has not sent any weather packets the latest 10 day(s).
| Time | Temp. | Humidity | Pressure | Rain* | Wind** | Luminosity | Snow |
|---|---|---|---|---|---|---|---|
| 1787644799 | 19.44° C | 89% | 1014.8 hPa | 0 mm | 0 m/s | 0 W/m² | - |
| 1787644224 | 18.89° C | 82% | 1014.8 hPa | 0 mm | 0 m/s | 0 W/m² | - |
| 1787643694 | 18.89° C | 82% | 1014.6 hPa | 0 mm | 0 m/s | 0 W/m² | - |
| 1787643149 | 18.89° C | 85% | 1014.8 hPa | 0 mm | 0 m/s | 0 W/m² | - |
| 1787642549 | 18.89° C | 83% | 1014.7 hPa | 0 mm | 0 m/s | 0 W/m² | - |
| 1787642012 | 19.44° C | 81% | 1014.8 hPa | 0 mm | 0 m/s | 0 W/m² | - |
| 1787641474 | 19.44° C | 81% | 1015 hPa | 0 mm | 0 m/s | 0 W/m² | - |
| 1787640881 | 19.44° C | 84% | 1015 hPa | 0 mm | 0 m/s | 0 W/m² | - |
| 1787640311 | 19.44° C | 80% | 1014.8 hPa | 0 mm | 0 m/s | 0 W/m² | - |
| 1787639794 | 18.89° C | 81% | 1014.7 hPa | 0 mm | 0 m/s | 0 W/m² | - |
| 1787639289 | 19.44° C | 80% | 1014.7 hPa | 0 mm | 0 m/s | 0 W/m² | - |
| 1787638729 | 20° C | 78% | 1014.7 hPa | 0 mm | 0 m/s | 0 W/m² | - |
| 1787638154 | 20° C | 77% | 1015.3 hPa | 0 mm | 0 m/s | 0 W/m² | - |
| 1787637565 | 20° C | 77% | 1015.2 hPa | 0 mm | 0 m/s | 0 W/m² | - |
| 1787637004 | 19.44° C | 78% | 1014.9 hPa | 0 mm | 0 m/s | 0 W/m² | - |
| 1787636514 | 19.44° C | 78% | 1015.2 hPa | 0 mm | 0 m/s | 0 W/m² | - |
| 1787635999 | 19.44° C | 77% | 1015.2 hPa | 0 mm | 0 m/s | 0 W/m² | - |
| 1787635481 | 19.44° C | 77% | 1015 hPa | 0 mm | 0 m/s | 0 W/m² | - |
| 1787634954 | 20° C | 79% | 1015.1 hPa | 0 mm | 0 m/s | 0 W/m² | - |
| 1787634369 | 20° C | 75% | 1015.1 hPa | 0 mm | 0 m/s | 0 W/m² | - |
| 1787633869 | 18.89° C | 78% | 1015.2 hPa | 0 mm | 0 m/s | 0 W/m² | - |
| 1787633279 | 18.89° C | 80% | 1015.3 hPa | 0 mm | 0 m/s | 0 W/m² | - |
| 1787632704 | 20° C | 84% | 1015.2 hPa | 0 mm | 0 m/s | 0 W/m² | - |
| 1787632179 | 19.44° C | 77% | 1015.5 hPa | 0 mm | 0 m/s | 0 W/m² | - |
| 1787631581 | 19.44° C | 77% | 1015.2 hPa | 0 mm | 0 m/s | 0 W/m² | - |
* Rain latest hour (hover to see other rain measurements)
** Current wind speed in m/s (hover to see current wind gust speed)